New Orleans Lakefront, LA

9:29 AM CDT on September 22, 2017 (GMT -0500)
Lakefront

Weather History for KNEW - December, 2012

Change the Weather History Date:

Sunday, December 2, 2012

  Actual Average Record
Temperature  
Mean Temperature 67 °F 58 °F  
Max Temperature 79 °F 67 °F 83 °F (2007)
Min Temperature 55 °F 49 °F 29 °F (1960)
Degree Days  
Heating Degree Days 0 8  
Month to date heating degree days 2 16  
Since 1 July heating degree days 191 180  
Cooling Degree Days 2 1  
Month to date cooling degree days 2 2  
Year to date cooling degree days 3376 2980  
Growing Degree Days 18 (Base 50)    
Moisture  
Dew Point 60 °F    
Average Humidity 79    
Maximum Humidity 100    
Minimum Humidity 58    
Precipitation  
Precipitation 0.00 in 0.16 in 1.66 in (1955)
Month to date precipitation 0.04 0.33  
Year to date precipitation 63.17 57.54  
Snow  
Snow 0.00 in - - ()
Month to date snowfall 0.0  
Since 1 July snowfall 0.0  
Snow Depth 0.00 in    
Sea Level Pressure  
Sea Level Pressure 30.21 in    
Wind  
Wind Speed 5 mph (ESE)    
Max Wind Speed 14 mph    
Max Gust Speed 16 mph    
Visibility 8 miles    
Events      
T = Trace of Precipitation, MM = Missing Value Source: NWS Daily Summary

Daily Weather History Graph

Daily Weather History Graph

Search for Another Location

Airport or City:

Trip Planner

Search our weather history database for the weather conditions in past years. The results will help you decide how hot, cold, wet, or windy it might be!

Date:

Astronomy

Dec. 02, 2012 Rise Set
Actual Time 6:39 AM CST 4:59 PM CST
Civil Twilight 6:13 AM CST 5:25 PM CST
Nautical Twilight 5:43 AM CST 5:55 PM CST
Astronomical Twilight 5:14 AM CST 6:24 PM CST
Moon 8:40 PM CST (12/2) 9:35 AM CST (12/2)
Length of Visible Light 11h 12m
Length of Day
10h 20m
Waning Gibbous, 85% of the Moon is Illuminated
Dec 2
Waning Gibbous
Dec 6
Last Quarter
Dec 13
New
Dec 19
First Quarter
Dec 28
Full

Hourly Weather History & Observations

Time (CST) Temp. Dew Point Humidity Pressure Visibility Wind Dir Wind Speed Gust Speed Precip Events Conditions
12:53 AM 60.1 °F 57.9 °F 93% 30.20 in 4.0 mi ESE 4.6 mph - N/A   Clear
1:53 AM 61.0 °F 59.0 °F 93% 30.20 in 5.0 mi Calm Calm - N/A   Clear
2:53 AM 60.1 °F 59.0 °F 96% 30.20 in 6.0 mi East 3.5 mph - 0.01 in   Clear
3:53 AM 60.1 °F 59.0 °F 96% 30.20 in 6.0 mi East 4.6 mph - N/A   Clear
4:53 AM 60.1 °F 59.0 °F 96% 30.22 in 6.0 mi ENE 5.8 mph - N/A   Clear
5:53 AM 60.1 °F 59.0 °F 96% 30.23 in 5.0 mi East 5.8 mph - N/A   Clear
6:53 AM 60.1 °F 59.0 °F 96% 30.25 in 3.0 mi East 5.8 mph - N/A   Partly Cloudy
7:53 AM 62.1 °F 61.0 °F 96% 30.26 in 5.0 mi East 3.5 mph - N/A   Clear
8:53 AM 66.0 °F 63.0 °F 90% 30.26 in 9.0 mi ESE 4.6 mph - N/A   Clear
9:53 AM 72.0 °F 63.0 °F 73% 30.26 in 10.0 mi SSE 8.1 mph - N/A   Clear
10:53 AM 75.0 °F 62.1 °F 64% 30.25 in 10.0 mi ESE 9.2 mph - N/A   Clear
11:53 AM 75.9 °F 61.0 °F 60% 30.23 in 10.0 mi SE 6.9 mph - N/A   Partly Cloudy
12:53 PM 77.0 °F 61.0 °F 58% 30.20 in 10.0 mi SE 9.2 mph - N/A   Partly Cloudy
1:53 PM 77.0 °F 60.1 °F 56% 30.18 in 10.0 mi SE 6.9 mph - N/A   Partly Cloudy
2:53 PM 75.0 °F 60.1 °F 60% 30.18 in 10.0 mi ESE 11.5 mph - N/A   Partly Cloudy
3:53 PM 75.0 °F 59.0 °F 57% 30.18 in 10.0 mi SE 8.1 mph - N/A   Partly Cloudy
4:53 PM 71.1 °F 59.0 °F 66% 30.19 in 10.0 mi East 9.2 mph - N/A   Clear
5:53 PM 68.0 °F 60.1 °F 76% 30.20 in 10.0 mi SE 5.8 mph - N/A   Clear
6:53 PM 66.9 °F 60.1 °F 79% 30.20 in 10.0 mi SE 6.9 mph - N/A   Clear
7:53 PM 64.9 °F 61.0 °F 87% 30.21 in 10.0 mi SE 5.8 mph - N/A   Clear
8:53 PM 64.0 °F 61.0 °F 90% 30.21 in 9.0 mi SE 5.8 mph - N/A   Clear
9:53 PM 64.9 °F 62.1 °F 90% 30.20 in 9.0 mi SE 6.9 mph - N/A   Clear
10:53 PM 64.0 °F 61.0 °F 90% 30.20 in 9.0 mi SE 5.8 mph - N/A   Clear
11:53 PM 63.0 °F 61.0 °F 93% 30.19 in 9.0 mi ESE 4.6 mph - 0.01 in   Clear